• In Hungary
  • List of Countries
  • For 7 days
  • Water Temperature
  • Satellite Maps
  • Weather Map
  • News
  • Weather Widgets
  • user-avatar
    Login

    Hourly Weather Washington

    Today, 15 December, Friday

    Time Temperature Precipitation Wind Pressure Humidity
    00:00 -3°C° 0 mm 1 mps 757 mmHg 59%
    01:00 -3°C° 0 mm 1 mps 758 mmHg 58%
    02:00 -3°C° 0 mm 1 mps 757 mmHg 58%
    03:00 -3°C° 0 mm 1 mps 757 mmHg 58%
    04:00 -4°C° 0 mm 0 mps 757 mmHg 57%
    05:00 -3°C° 0 mm 1 mps 757 mmHg 56%
    06:00 -3°C° 0 mm 1 mps 757 mmHg 55%
    07:00 -3°C° 0 mm 1 mps 757 mmHg 54%
    08:00 -2°C° 0 mm 1 mps 756 mmHg 53%
    09:00 -1°C° 0 mm 1 mps 756 mmHg 51%
    10:00 0°C° 0 mm 1 mps 756 mmHg 50%
    11:00 0°C° 0.1 mm 1 mps 755 mmHg 54%
    12:00 0°C° 0.1 mm 1 mps 754 mmHg 59%
    13:00 +1°C° 0.1 mm 1 mps 753 mmHg 63%
    14:00 +1°C° 0 mm 1 mps 753 mmHg 64%
    15:00 +1°C° 0 mm 1 mps 753 mmHg 66%
    16:00 +2°C° 0 mm 1 mps 752 mmHg 67%
    17:00 +1°C° 0 mm 1 mps 753 mmHg 71%
    18:00 0°C° 0 mm 1 mps 753 mmHg 76%
    19:00 -1°C° 0 mm 1 mps 754 mmHg 80%
    20:00 -1°C° 0 mm 1 mps 754 mmHg 77%
    21:00 -3°C° 0 mm 2 mps 754 mmHg 74%
    22:00 -3°C° 0 mm 2 mps 754 mmHg 71%
    23:00 -3°C° 0 mm 2 mps 754 mmHg 70%

    Tomorrow, 16 December, Saturday

    Time Temperature Precipitation Wind Pressure Humidity
    00:00 -3°C° 0 mm 2 mps 755 mmHg 68%
    01:00 -3°C° 0 mm 2 mps 755 mmHg 67%
    02:00 -4°C° 0 mm 2 mps 755 mmHg 66%
    03:00 -4°C° 0 mm 2 mps 756 mmHg 66%
    04:00 -4°C° 0 mm 2 mps 756 mmHg 66%
    05:00 -4°C° 0 mm 2 mps 756 mmHg 65%
    06:00 -4°C° 0 mm 2 mps 757 mmHg 65%
    07:00 -5°C° 0 mm 3 mps 757 mmHg 65%
    08:00 -2°C° 0 mm 3 mps 757 mmHg 60%
    09:00 -1°C° 0 mm 4 mps 757 mmHg 54%
    10:00 +1°C° 0 mm 4 mps 757 mmHg 49%
    11:00 +3°C° 0 mm 4 mps 757 mmHg 47%
    12:00 +4°C° 0 mm 4 mps 757 mmHg 46%
    13:00 +6°C° 0 mm 4 mps 757 mmHg 44%
    14:00 +7°C° 0 mm 3 mps 757 mmHg 48%
    15:00 +6°C° 0 mm 2 mps 757 mmHg 52%
    16:00 +6°C° 0 mm 2 mps 757 mmHg 56%
    17:00 +5°C° 0 mm 1 mps 758 mmHg 61%
    18:00 +4°C° 0 mm 1 mps 759 mmHg 66%
    19:00 +2°C° 0 mm 1 mps 760 mmHg 71%
    20:00 +2°C° 0 mm 1 mps 760 mmHg 73%
    21:00 +1°C° 0 mm 0 mps 761 mmHg 75%
    22:00 0°C° 0 mm 0 mps 761 mmHg 76%
    23:00 0°C° 0 mm 0 mps 761 mmHg 77%

    Day after tomorrow, 17 December, Sunday

    Time Temperature Precipitation Wind Pressure Humidity
    00:00 0°C° 0 mm 0 mps 762 mmHg 78%
    01:00 0°C° 0 mm 0 mps 762 mmHg 79%
    02:00 -1°C° 0 mm 0 mps 762 mmHg 80%
    03:00 -1°C° 0 mm 0 mps 762 mmHg 81%
    04:00 -1°C° 0 mm 0 mps 762 mmHg 82%
    05:00 -1°C° 0 mm 0 mps 762 mmHg 83%
    06:00 -1°C° 0 mm 0 mps 762 mmHg 84%
    07:00 0°C° 0 mm 1 mps 762 mmHg 85%
    08:00 +1°C° 0 mm 1 mps 762 mmHg 79%
    09:00 +3°C° 0 mm 1 mps 762 mmHg 73%
    10:00 +4°C° 0 mm 1 mps 762 mmHg 67%
    11:00 +5°C° 0 mm 1 mps 762 mmHg 62%
    12:00 +7°C° 0 mm 1 mps 761 mmHg 58%
    13:00 +8°C° 0 mm 1 mps 760 mmHg 54%
    14:00 +8°C° 0 mm 1 mps 760 mmHg 57%
    15:00 +7°C° 0 mm 1 mps 760 mmHg 61%
    16:00 +7°C° 0 mm 1 mps 760 mmHg 65%
    17:00 +6°C° 0 mm 1 mps 760 mmHg 67%
    18:00 +6°C° 0 mm 1 mps 760 mmHg 70%
    19:00 +5°C° 0 mm 1 mps 760 mmHg 73%
    20:00 +5°C° 0 mm 1 mps 760 mmHg 73%
    21:00 +5°C° 0 mm 1 mps 760 mmHg 73%
    22:00 +5°C° 0 mm 1 mps 760 mmHg 74%
    23:00 +5°C° 0 mm 1 mps 760 mmHg 74%

    18 December, Monday

    Time Temperature Precipitation Wind Pressure Humidity
    00:00 +5°C° 0 mm 1 mps 759 mmHg 73%
    01:00 +4°C° 0 mm 0 mps 759 mmHg 73%
    02:00 +5°C° 0 mm 1 mps 759 mmHg 75%
    03:00 +4°C° 0 mm 1 mps 759 mmHg 77%
    04:00 +4°C° 0 mm 1 mps 759 mmHg 79%
    05:00 +4°C° 0 mm 1 mps 759 mmHg 79%
    06:00 +3°C° 0 mm 1 mps 760 mmHg 80%
    07:00 +3°C° 0 mm 1 mps 760 mmHg 81%
    08:00 +5°C° 0 mm 1 mps 760 mmHg 76%
    09:00 +6°C° 0 mm 1 mps 760 mmHg 71%
    10:00 +8°C° 0 mm 1 mps 761 mmHg 66%
    11:00 +9°C° 0 mm 1 mps 760 mmHg 63%
    12:00 +10°C° 0 mm 1 mps 759 mmHg 60%
    13:00 +12°C° 0 mm 1 mps 759 mmHg 57%
    14:00 +11°C° 0 mm 1 mps 759 mmHg 60%
    15:00 +11°C° 0 mm 1 mps 758 mmHg 63%
    16:00 +10°C° 0 mm 1 mps 758 mmHg 67%
    17:00 +9°C° 0 mm 1 mps 758 mmHg 69%
    18:00 +9°C° 0 mm 1 mps 758 mmHg 72%
    19:00 +8°C° 0 mm 1 mps 758 mmHg 74%
    20:00 +7°C° 0 mm 2 mps 758 mmHg 76%
    21:00 +7°C° 0 mm 2 mps 757 mmHg 77%
    22:00 +6°C° 0 mm 2 mps 757 mmHg 79%
    23:00 +6°C° 0 mm 2 mps 756 mmHg 81%

    19 December, Tuesday

    Time Temperature Precipitation Wind Pressure Humidity
    00:00 +6°C° 0 mm 2 mps 755 mmHg 83%
    01:00 +6°C° 0 mm 2 mps 755 mmHg 86%
    02:00 +6°C° 0 mm 2 mps 754 mmHg 89%
    03:00 +7°C° 0 mm 1 mps 754 mmHg 92%
    04:00 +8°C° 0 mm 1 mps 753 mmHg 95%
    05:00 +8°C° 0.1 mm 1 mps 753 mmHg 96%
    06:00 +8°C° 0.1 mm 2 mps 752 mmHg 97%
    07:00 +8°C° 0.1 mm 2 mps 752 mmHg 97%
    08:00 +9°C° 0.4 mm 2 mps 751 mmHg 96%
    09:00 +10°C° 0.4 mm 3 mps 751 mmHg 94%
    10:00 +12°C° 0.4 mm 3 mps 750 mmHg 92%
    11:00 +12°C° 0.1 mm 3 mps 749 mmHg 90%
    12:00 +12°C° 0.1 mm 3 mps 749 mmHg 88%
    13:00 +14°C° 0.1 mm 2 mps 748 mmHg 87%
    14:00 +14°C° 0.1 mm 2 mps 748 mmHg 87%
    15:00 +14°C° 0.1 mm 2 mps 747 mmHg 87%
    16:00 +14°C° 0.1 mm 2 mps 747 mmHg 87%
    17:00 +13°C° 0 mm 2 mps 748 mmHg 87%
    18:00 +11°C° 0 mm 3 mps 748 mmHg 86%
    19:00 +11°C° 0 mm 3 mps 749 mmHg 86%
    20:00 +10°C° 0 mm 4 mps 749 mmHg 82%
    21:00 +8°C° 0 mm 4 mps 750 mmHg 77%
    22:00 +7°C° 0 mm 4 mps 751 mmHg 73%
    23:00 +6°C° 0 mm 4 mps 751 mmHg 70%

    20 December, Wednesday

    Time Temperature Precipitation Wind Pressure Humidity
    00:00 +5°C° 0 mm 4 mps 752 mmHg 67%
    01:00 +4°C° 0 mm 4 mps 752 mmHg 64%
    02:00 +3°C° 0 mm 4 mps 753 mmHg 63%
    03:00 +1°C° 0 mm 4 mps 753 mmHg 61%
    04:00 0°C° 0 mm 4 mps 754 mmHg 60%
    05:00 0°C° 0 mm 4 mps 754 mmHg 60%
    06:00 0°C° 0 mm 4 mps 754 mmHg 60%
    07:00 -1°C° 0 mm 4 mps 755 mmHg 59%
    08:00 +1°C° 0 mm 5 mps 755 mmHg 53%
    09:00 +2°C° 0 mm 6 mps 755 mmHg 46%
    10:00 +2°C° 0 mm 8 mps 756 mmHg 39%
    11:00 +4°C° 0 mm 8 mps 756 mmHg 36%
    12:00 +5°C° 0 mm 8 mps 756 mmHg 33%
    13:00 +5°C° 0 mm 8 mps 756 mmHg 30%
    14:00 +5°C° 0 mm 7 mps 756 mmHg 32%
    15:00 +6°C° 0 mm 5 mps 756 mmHg 33%
    16:00 +5°C° 0 mm 4 mps 757 mmHg 35%
    17:00 +4°C° 0 mm 3 mps 757 mmHg 38%
    18:00 +3°C° 0 mm 3 mps 758 mmHg 41%
    19:00 +3°C° 0 mm 2 mps 759 mmHg 44%
    20:00 +2°C° 0 mm 2 mps 759 mmHg 46%
    21:00 +2°C° 0 mm 2 mps 759 mmHg 47%
    22:00 +2°C° 0 mm 2 mps 760 mmHg 49%
    23:00 +2°C° 0 mm 2 mps 760 mmHg 50%
    Show more